Regional Weather Roundup
Issued by NWS

Home | Current Version | Previous Version | Text Only | Print | Product List | Glossary On
Versions: 1 2 3 4 5 6 7 8 9 10 11 12 13 14 15 16 17 18 19 20 21 22 23 24 25 26 27 28 29 30 31 32 33 34 35 36 37 38 39 40 41 42 43 44 45 46 47 48 49 50
000
ASUS44 KFWD 281203
RWRTX
NORTH TEXAS HOURLY WEATHER ROUNDUP
NATIONAL WEATHER SERVICE FORT WORTH TX
700 AM CDT TUE APR 28 2015

NOTE: "FAIR" INDICATES FEW OR NO CLOUDS BELOW 12,000 FEET WITH NO
SIGNIFICANT WEATHER AND/OR OBSTRUCTIONS TO VISIBILITY.

TXZ118-119-281300-
DALLAS/FORT WORTH METROPLEX

CITY           SKY/WX    TMP DP  RH WIND       PRES   REMARKS
DFW AIRPORT    CLOUDY    54  48  80 N16       29.98R
6HR MIN TEMP:  54; 6HR MAX TEMP:  55;

DALLAS LOVE    CLOUDY    55  47  74 N9        29.98R
6HR MIN TEMP:  55; 6HR MAX TEMP:  56;

FTW MEACHAM    CLOUDY    54  49  83 N13       29.99R
6HR MIN TEMP:  53; 6HR MAX TEMP:  55;

DAL-EXECUTIVE  CLOUDY    54  47  77 N9        29.97R
6HR MIN TEMP:  53; 6HR MAX TEMP:  56;

FTW-ALLIANCE   CLOUDY    53  48  83 NE13      30.00R
6HR MIN TEMP:  52; 6HR MAX TEMP:  53;

FTW-NAS-JRB    LGT RAIN  54  50  86 N12       30.00R
6HR MIN TEMP:  54; 6HR MAX TEMP:  56; 6HR PCP: TRACE;

FTW-SPINKS     CLOUDY    54  48  82 CALM      29.99R
ARLINGTON      CLOUDY    56  45  66 N12       29.98R
6HR MIN TEMP:  56; 6HR MAX TEMP:  58;

ADDISON        CLOUDY    54  46  76 N10G17    29.98R
MESQUITE       CLOUDY    54  48  82 N8        29.97R
LANCASTER      CLOUDY    53  47  78 N7        29.97R
6HR MIN TEMP:  51; 6HR MAX TEMP:  55;

$$

TXZ091>094-102>105-117-120-121-131>134-281300-
NORTH CENTRAL TEXAS

CITY           SKY/WX    TMP DP  RH WIND       PRES   REMARKS
SHRMAN/DENISON CLOUDY    54  51  89 N12       30.02R
6HR MIN TEMP:  52; 6HR MAX TEMP:  54;

BRIDGEPORT     CLOUDY    52  48  86 N6        30.05R
6HR MIN TEMP:  51; 6HR MAX TEMP:  53;

DECATUR        CLOUDY    51  47  86 N9G16     30.02R
6HR MIN TEMP:  50; 6HR MAX TEMP:  51;

DENTON         CLOUDY    53  47  79 NE14      30.00R
6HR MIN TEMP:  52; 6HR MAX TEMP:  54;

MCKINNEY       CLOUDY    53  49  86 N9        29.99R
6HR MIN TEMP:  53; 6HR MAX TEMP:  54;

GREENVILLE     CLOUDY    54  46  76 N6        29.97R
ROCKWALL       CLOUDY    53  48  83 N12       29.96R
6HR MIN TEMP:  52; 6HR MAX TEMP:  54;

TERRELL        CLOUDY    54  49  83 N12       29.96R
6HR MIN TEMP:  53; 6HR MAX TEMP:  56;

WAXAHACHIE     CLOUDY    53  50  92 CALM      29.98R
6HR MIN TEMP:  52; 6HR MAX TEMP:  55;

CLEBURNE       LGT RAIN  52  52 100 N10       29.98R
GRANBURY       HVY RAIN  53  51  92 NW9       30.01R
6HR MIN TEMP:  53; 6HR MAX TEMP:  57; 6HR PCP:  0.05;

$$

TXZ083>090-098>101-113>116-127>130-139>142-154-155-281300-
WESTERN NORTH TEXAS

CITY           SKY/WX    TMP DP  RH WIND       PRES   REMARKS
WICHITA FALLS  CLOUDY    51  47  86 N16       30.08R
6HR MIN TEMP:  50; 6HR MAX TEMP:  51;

WF-KICKAPOO    CLOUDY    53  48  83 N13G22    30.09R
6HR MIN TEMP:  52; 6HR MAX TEMP:  53;

VERNON         CLOUDY    51  44  77 N15G21    30.13R
6HR MIN TEMP:  50; 6HR MAX TEMP:  55; 6HR PCP:  0.06;

ABILENE        LGT RAIN  49  49 100 N18       30.06R
6HR MIN TEMP:  49; 6HR MAX TEMP:  55; 6HR PCP:  0.53;

ABILENE-DYESS  CLOUDY    48  48 100 N15       30.05R
                                      6HR PCP:  0.26;

BRECKENRIDGE   HVY RAIN  51  50  97 N10G22    30.04R
6HR MIN TEMP:  51; 6HR MAX TEMP:  57; 6HR PCP:  0.08;

GRAHAM         CLOUDY    51  48  90 N10G18    30.03R
6HR MIN TEMP:  51; 6HR MAX TEMP:  53;

MINERAL WELLS  LGT RAIN  51  49  92 N8        30.00R
6HR MIN TEMP:  51; 6HR MAX TEMP:  54; 6HR PCP:  0.07;

STEPHENVILLE   CLOUDY    51  48  92 N13       30.00R
6HR MIN TEMP:  51; 6HR MAX TEMP:  55; 6HR PCP:  0.15;

COMANCHE       LGT RAIN  51  51 100 N13       30.00R
6HR MIN TEMP:  51; 6HR MAX TEMP:  58; 6HR PCP:  0.01;

COLEMAN        LGT RAIN  50  50  98 N15       30.03R
6HR MIN TEMP:  50; 6HR MAX TEMP:  57; 6HR PCP:  0.39;

$$

TXZ143>147-156>162-174-175-281300-
CENTRAL TEXAS

CITY           SKY/WX    TMP DP  RH WIND       PRES   REMARKS
WACO           CLOUDY    53  52  96 N14       29.94R FOG
6HR MIN TEMP:  53; 6HR MAX TEMP:  58; 6HR PCP: TRACE;

WACO-MCGREGOR  CLOUDY    54  48  82 N10       29.95R
6HR MIN TEMP:  54; 6HR MAX TEMP:  61;

HILLSBORO      LGT RAIN  51  49  92 N10       29.96R
6HR MIN TEMP:  51; 6HR MAX TEMP:  57; 6HR PCP:  0.01;

CORSICANA      CLOUDY    55  50  83 NE10      29.95R
6HR MIN TEMP:  55; 6HR MAX TEMP:  60;

MEXIA          CLOUDY    55  54  96 MISG      29.91R
6HR MIN TEMP:  55; 6HR MAX TEMP:  60; 6HR PCP:  0.01;

HEARNE         CLOUDY    58  57  97 NW13      29.90R FOG
6HR MIN TEMP:  58; 6HR MAX TEMP:  63;

TEMPLE         CLOUDY    54  48  82 N9        29.92R
6HR MIN TEMP:  54; 6HR MAX TEMP:  63;

KILLEEN        CLOUDY    55  54  94 N13       29.92R
6HR MIN TEMP:  55; 6HR MAX TEMP:  60;

KILLEEN-SKYLRK CLOUDY    55  48  76 N9        29.92S
6HR MIN TEMP:  55; 6HR MAX TEMP:  63;

FORT HOOD      CLOUDY    55  53  91 N13       29.92R
6HR MIN TEMP:  55; 6HR MAX TEMP:  61;

GATESVILLE     CLOUDY    54  52  94 N7        29.97R
HAMILTON       LGT RAIN  53  53 100 N13G18    29.97R
6HR MIN TEMP:  53; 6HR MAX TEMP:  59; 6HR PCP:  0.21;

LAMPASAS       CLOUDY    55  55  97 N6        29.94R
6HR MIN TEMP:  55; 6HR MAX TEMP:  60; 6HR PCP:  0.04;

$$

TXZ095>097-106>112-122>126-135>138-148>153-164>167-281300-
EAST TEXAS

CITY           SKY/WX    TMP DP  RH WIND       PRES   REMARKS
PARIS          CLOUDY    54  45  71 MISG      29.99R
6HR MIN TEMP:  54; 6HR MAX TEMP:  54;

SULPHUR SPRNGS CLOUDY    54  49  85 NE9       29.99R
6HR MIN TEMP:  52; 6HR MAX TEMP:  54;

MOUNT PLEASANT CLOUDY   N/A N/A N/A NE9       29.96R
                                      6HR PCP:  0.05;

GILMER         CLEAR     50  49  94 N5        29.93R
6HR MIN TEMP:  50; 6HR MAX TEMP:  54; 6HR PCP:  0.34;

MINEOLA        CLOUDY    52  50  93 NE3       29.95R
TYLER          PTCLDY    52  49  89 NE8       29.91R
6HR MIN TEMP:  52; 6HR MAX TEMP:  59; 6HR PCP: TRACE;

LONGVIEW       CLEAR     52  49  89 NE6       29.90R
6HR MIN TEMP:  52; 6HR MAX TEMP:  58; 6HR PCP:  0.13;

MARSHALL       CLEAR     53  51  92 N5        29.92R
6HR MIN TEMP:  53; 6HR MAX TEMP:  58; 6HR PCP:  0.13;

ATHENS         CLOUDY    52  50  93 N7        29.92R
PALESTINE      CLOUDY   N/A N/A N/A NE6       29.90S
JACKSONVILLE   CLOUDY    53  51  95 NE7       29.91R
HENDERSON      CLOUDY    52  51  97 N5        29.91R
6HR MIN TEMP:  52; 6HR MAX TEMP:  59;

NACOGDOCHES      N/A     52  48  87 N5        29.87R
6HR MIN TEMP:  52; 6HR MAX TEMP:  63; 6HR PCP:  0.02;

LUFKIN         CLEAR     57  53  86 N6        29.86R
6HR MIN TEMP:  57; 6HR MAX TEMP:  68; 6HR PCP:  0.21;

$$

SUPPLEMENTAL OBSERVATIONS (CENTRAL)

CITY           SKY/WX    TMP DP  RH WIND       PRES   REMARKS
$$

SUPPLEMENTAL OBSERVATIONS (WEST)

CITY           SKY/WX    TMP DP  RH WIND       PRES   REMARKS
$$

SUPPLEMENTAL OBSERVATIONS (EAST)

CITY           SKY/WX    TMP DP  RH WIND       PRES   REMARKS
$$

SUPPLEMENTAL OBSERVATIONS ARE A COLLECTION OF AUTOMATED INSTRUMENTS
THAT ARE MAINTAINED BY A VARIETY OF FEDERAL AND STATE AGENCIES.
CERTAIN ELEMENTS...SUCH AS HUMIDITY VALUES AND SUSTAINED WIND
SPEEDS...MAY BE APPROXIMATED.



USA.gov is the U.S. government's official web portal to all federal, state and local government web resources and services.